Lamar, CO

3:03 AM MDT on June 23, 2017 (GMT -0600)
Lamar Municipal

Weather History for KLAA - December, 2013

Change the Weather History Date:

Wednesday, December 11, 2013

  Actual Average Record
Temperature  
Mean Temperature 25 °F 30 °F  
Max Temperature 41 °F 46 °F 73 °F (1939)
Min Temperature 8 °F 15 °F -17 °F (1932)
Degree Days  
Heating Degree Days 40 35  
Month to date heating degree days 461 367  
Since 1 July heating degree days 1529 1583  
Cooling Degree Days 0 0  
Month to date cooling degree days 0 0  
Year to date cooling degree days 1568 1121  
Moisture  
Dew Point 11 °F    
Average Humidity 54    
Maximum Humidity 80    
Minimum Humidity 28    
Precipitation  
Precipitation 0.00 in 0.01 in 0.15 in (1972)
Month to date precipitation T  
Year to date precipitation 10.32  
Sea Level Pressure  
Sea Level Pressure 30.47 in    
Wind  
Wind Speed 6 mph (SSE)    
Max Wind Speed 21 mph    
Max Gust Speed 27 mph    
Visibility 10 miles    
Events      
T = Trace of Precipitation, MM = Missing Value Source: NWS Daily Summary

Daily Weather History Graph

Daily Weather History Graph

Search for Another Location

Airport or City:

Trip Planner

Search our weather history database for the weather conditions in past years. The results will help you decide how hot, cold, wet, or windy it might be!

Date:

Astronomy

Dec. 11, 2013 Rise Set
Actual Time 6:57 AM MST 4:31 PM MST
Civil Twilight 6:27 AM MST 5:00 PM MST
Nautical Twilight 5:54 AM MST 5:33 PM MST
Astronomical Twilight 5:22 AM MST 6:05 PM MST
Moon 1:02 PM MST (12/11) 1:24 AM MST (12/11)
Length of Visible Light 10h 33m
Length of Day
9h 34m
Waxing Gibbous, 72% of the Moon is Illuminated
Dec 11
Waxing Gibbous
Dec 17
Full
Dec 25
Last Quarter
Jan 1
New
Jan 7
First Quarter

Hourly Weather History & Observations

Time (MST) Temp. Windchill Dew Point Humidity Pressure Visibility Wind Dir Wind Speed Gust Speed Precip Events Conditions
12:53 AM 17.1 °F 8.7 °F 10.0 °F 74% 30.32 in 10.0 mi SW 5.8 mph - N/A   Clear
1:53 AM 15.1 °F - 9.0 °F 77% 30.36 in 10.0 mi Calm Calm - N/A   Clear
2:53 AM 12.0 °F 4.1 °F 7.0 °F 80% 30.40 in 10.0 mi West 4.6 mph - N/A   Clear
3:53 AM 14.0 °F - 7.0 °F 74% 30.43 in 10.0 mi Calm Calm - N/A   Scattered Clouds
4:53 AM 15.1 °F - 9.0 °F 77% 30.47 in 10.0 mi Calm Calm - N/A   Mostly Cloudy
5:53 AM 17.1 °F - 12.0 °F 81% 30.51 in 10.0 mi Calm Calm - N/A   Overcast
6:28 AM 19.0 °F - 12.9 °F 77% 30.43 in 10.0 mi Calm Calm - N/A   Overcast
6:53 AM 19.0 °F - 14.0 °F 81% 30.55 in 10.0 mi Calm Calm - N/A   Overcast
7:53 AM 21.0 °F - 15.1 °F 78% 30.55 in 10.0 mi Calm Calm - N/A   Overcast
8:53 AM 21.9 °F 17.2 °F 16.0 °F 78% 30.59 in 10.0 mi ESE 3.5 mph - N/A   Overcast
9:26 AM 25.0 °F 18.1 °F 17.1 °F 72% 30.51 in 10.0 mi SE 5.8 mph - N/A   Scattered Clouds
9:53 AM 27.0 °F 18.7 °F 18.0 °F 69% 30.59 in 10.0 mi SSW 8.1 mph - N/A   Clear
10:53 AM 30.0 °F 20.5 °F 18.0 °F 61% 30.56 in 10.0 mi South 11.5 mph - N/A   Clear
11:53 AM 34.0 °F 26.6 °F 17.1 °F 50% 30.53 in 10.0 mi South 9.2 mph - N/A   Clear
12:53 PM 37.9 °F 29.6 °F 15.1 °F 39% 30.47 in 10.0 mi South 13.8 mph - N/A   Clear
1:53 PM 39.9 °F 31.8 °F 10.9 °F 31% 30.44 in 10.0 mi South 15.0 mph 24.2 mph N/A   Clear
2:53 PM 41.0 °F 33.5 °F 10.9 °F 29% 30.42 in 10.0 mi South 13.8 mph - N/A   Clear
3:53 PM 39.0 °F 32.3 °F 12.0 °F 33% 30.41 in 10.0 mi SSE 10.4 mph - N/A   Clear
4:53 PM 30.0 °F 20.0 °F 10.0 °F 43% 30.42 in 10.0 mi SSE 12.7 mph - N/A   Clear
5:53 PM 27.0 °F 16.1 °F 10.0 °F 49% 30.43 in 10.0 mi SSE 12.7 mph - N/A   Clear
6:53 PM 21.9 °F 15.7 °F 9.0 °F 58% 30.44 in 10.0 mi ESE 4.6 mph - N/A   Clear
7:53 PM 19.0 °F 10.0 °F 9.0 °F 65% 30.45 in 10.0 mi East 6.9 mph - N/A   Clear
8:53 PM 15.1 °F 9.4 °F 7.0 °F 70% 30.46 in 10.0 mi ENE 3.5 mph - N/A   Clear
9:53 PM 10.0 °F - 3.9 °F 76% 30.47 in 10.0 mi Calm Calm - N/A   Clear
10:53 PM 9.0 °F -0.9 °F 3.0 °F 77% 30.46 in 10.0 mi SSW 5.8 mph - N/A   Clear
11:53 PM 10.0 °F 3.6 °F 3.9 °F 76% 30.45 in 10.0 mi NW 3.5 mph - N/A   Clear